www.pogodaiklimat.ru

Погода и климат >> Архив погоды >> Россия >> Крым >> Алушта


АРХИВ ПОГОДЫ в Алуште

Время (UTC), дата Ветер
(напр.,м/с)
 
Видим.   Явления Облачность Т
(С)
Тd
(С)
f
(%)
Тe
(С)
Тes
(С)
Комфортность P
(гПа)
Po
(гПа)
Тmin
(С)
Tmax
(С)
R
(мм)
R24
(мм)
S
(см)
00 17.01 СЗ 5
{10}
20 км {ливн. осадки} 3/1 1500 м
[Cb calv Ci sp]
+4.1 -2.7 61 -0 -0 по сезону 1009.3 1000.1
03 17.01 СЗ 4
{10}
20 км 3/1 1500 м
[Sc Ci sp]
+2.7 -2.5 69 -2 -2 прохладно 1012.1 1002.8 +1.9 0.9
06 17.01 СЗ 3
{11}
50 км 3/3 1500 м
[Sc]
+2.6 -4.4 60 -1 -1 прохладно 1014.2 1004.9 +1.9 0.9
12 17.01 штиль 0 50 км 4/4 1500 м
[Sc]
+6.3 -1.8 56 +6 +8 по сезону 1017.0 1007.8
15 17.01 ЮВ 1 50 км 8/8 1500 м
[Sc]
+5.9 -2.7 54 +5 +5 по сезону 1018.7 1009.5
18 17.01 З 2 20 км 6/6 1500 м
[Sc]
+4.8 -2.8 58 +3 +3 по сезону 1020.0 1010.7 +6.8
21 17.01 З 1 20 км ясно +4.6 -2.7 59 +4 +4 по сезону 1020.8 1011.5
00 18.01 штиль 0 20 км 3/0
[Ci sp]
+4.3 -2.8 60 +4 +4 по сезону 1020.6 1011.3
03 18.01 СЗ 1 20 км 6/4 1500 м
[Sc Ci sp]
+3.6 -2.0 67 +2 +2 по сезону 1019.9 1010.6 +3.3
06 18.01 СЗ 2 50 км 8/8 1500 м
[Sc]
+4.6 +0.1 73 +2 +2 по сезону 1020.1 1010.8 +3.3
09 18.01 ЮЗ 4 50 км 9/9 1000 м
[Cb calv]
+7.2 +5.2 87 +4 +4 по сезону 1019.8 1010.6
12 18.01 ЮЗ 4
{10}
50 км 8/8 1000 м
[Cb calv]
+8.2 +3.5 72 +5 +5 по сезону 1018.2 1009.1
15 18.01 ЮЗ 2
{11}
50 км 8/5 1500 м
[Cb calv Ci sp]
+7.9 +4.0 76 +6 +6 по сезону 1018.6 1009.5
18 18.01 СЗ 3 20 км 9/9 1500 м
[Cb calv]
+7.0 +4.0 81 +4 +4 по сезону 1018.7 1009.5 +8.6
21 18.01 ЮЗ 1 20 км 8/8 1500 м
[Cb calv]
+6.3 +4.0 85 +5 +5 по сезону 1018.4 1009.2
00 19.01 СЗ 2 20 км 9/9 1500 м
[Cb calv]
+5.5 +3.3 86 +3 +3 по сезону 1017.7 1008.5
03 19.01 штиль 0 20 км 8/6 1500 м
[Cb calv Ci sp]
+6.4 +1.2 69 +6 +6 тепло 1016.7 1007.5 +5.5
06 19.01 З 1 50 км 8/4 1500 м
[Cb calv Ci sp]
+7.3 +1.6 67 +7 +7 тепло 1016.4 1007.2 +5.5
09 19.01 З 1 20 км 9/0
[As trans Ci sp]
+10.2 +5.2 71 +10 +13 тепло 1016.7 1007.6
12 19.01 З 5
{10}
50 км 8/0
[Ac lent Ci sp]
+11.8 +2.6 53 +10 +10 тепло 1016.7 1007.7
15 19.01 СЗ 7-12
{12}
20 км 3/0
[Ac lent]
+6.5 +0.7 66 +2 +2 по сезону 1018.9 1009.7
18 19.01 СЗ 2
{13}
20 км 3/0
[Ci sp]
+5.4 -0.1 68 +3 +3 по сезону 1020.6 1011.3 +12.7
21 19.01 ЮВ 1 20 км 8/8 1500 м
[Sc]
+6.1 +1.9 74 +5 +5 по сезону 1022.8 1013.6
00 20.01 штиль 0 20 км 10/10 600 м
[Cb calv]
+5.1 +1.0 75 +4 +4 по сезону 1023.8 1014.5
03 20.01 ЮВ 4 20 км 10/10 300 м
[Cb calv]
+4.2 +1.9 85 -0 -0 по сезону 1024.2 1014.9 +4.2
06 20.01 В 3 20 км 10/10 300 м
[Cb calv]
+3.9 +2.1 88 0 0 по сезону 1024.7 1015.4 +3.5
09 20.01 С 1 50 км 10/10 600 м
[Cb calv]
+3.5 +1.4 86 +2 +2 по сезону 1025.1 1015.7
12 20.01 штиль 0 50 км 10/10 300 м
[Sc]
+3.6 +1.6 87 +3 +3 по сезону 1023.0 1013.7
15 20.01 З 1 20 км 10/10 600 м
[Sc]
+3.5 +2.0 90 +2 +2 по сезону 1022.1 1012.8
18 20.01 СЗ 1 20 км 10/10 600 м
[Sc]
+4.1 +1.6 84 +3 +3 по сезону 1021.5 1012.2 +4.1
21 20.01 З 1 20 км 10/8 1000 м
[Cb calv Ac As]
+4.5 +1.7 82 +3 +3 по сезону 1021.0 1011.7
00 21.01 З 1 20 км 10/6 1000 м
[Cb calv Ac As]
+5.3 +2.4 82 +4 +4 по сезону 1018.7 1009.5
03 21.01 З 1 20 км 10/4 1000 м
[Sc Ac trans]
+5.3 +2.6 83 +4 +4 по сезону 1016.5 1007.3 +3.3
06 21.01 СЗ 1 20 км 9/6 600 м
[Cb calv Ci sp]
+6.3 +2.1 74 +5 +6 по сезону 1015.6 1006.4 +4.0
09 21.01 штиль 0 20 км в посл. час ливневой дождь 9/8 600 м
[Cb calv Ci sp]
+6.8 +5.2 90 +6 +7 по сезону 1014.8 1005.7
12 21.01 СЗ 1 20 км {ливн. осадки} 8/6 600 м
[Cb calv Ci sp]
+8.6 +6.4 86 +8 +9 тепло 1013.3 1004.2
15 21.01 З 4
{10}
20 км {ливн. осадки} 6/6 1000 м
[Cb calv]
+8.3 +5.3 81 +5 +5 по сезону 1013.6 1004.5 1
18 21.01 СЗ 10-14
{15}
20 км {ливн. осадки} 4/4 1000 м
[Sc]
+4.6 +1.3 79 -2 -2 прохладно 1014.6 1005.4 +9.0 1
21 21.01 З 10-12
{16}
20 км 9/6 1000 м
[Sc Ci sp]
+4.1 -0.4 72 -2 -2 прохладно 1016.2 1006.9
00 22.01 СЗ 8-12
{13}
20 км 6/6 1000 м
[Sc]
+3.6 -2.0 67 -2 -2 прохладно 1017.6 1008.3
03 22.01 СЗ 7-12
{12}
20 км 8/8 1000 м
[Sc]
+2.1 -4.3 63 -4 -4 холодно 1018.9 1009.5 +1.8
06 22.01 ЮЗ 2
{12}
50 км 4/3 1000 м
[Sc Ci sp]
+2.8 -0.8 77 -0 0 по сезону 1020.8 1011.5 +1.8
09 22.01 В 2 20 км 10/10 600 м
[Sc]
+2.7 0.0 82 -0 -0 прохладно 1022.1 1012.7
12 22.01 ЮЗ 1 20 км 10/10 600 м
[Cb calv]
+2.7 -0.6 79 +1 +1 прохладно 1021.8 1012.4
15 22.01 СВ 2 10 км слаб. ливневой дождь 10/10 300 м
[Cb calv]
+2.2 -0.3 84 -1 -1 прохладно 1021.4 1012.0 0.0
18 22.01 СЗ 1 20 км в посл. час ливневой дождь 10/10 300 м
[Cb calv]
+1.9 +0.3 89 0 0 по сезону 1021.1 1011.7 +3.0 0.3
21 22.01 З 1 20 км 10/10 300 м
[Cb calv]
+1.7 -0.2 87 -0 -0 по сезону 1020.2 1010.8
00 23.01 З 1 4000 м слаб. ливневой дождь 10/10 300 м
[Cb calv]
+1.9 +0.8 92 0 0 по сезону 1018.2 1008.9
03 23.01 З 1 10 баллов 91 1006.7 0.3
06 23.01 штиль 0 50 км {ливн. осадки} 10/10 600 м
[Cb calv]
+3.8 +2.6 92 +3 +3 по сезону 1015.7 1006.4 +1.5 0.0
09 23.01 В 1 10 баллов 85 1005.3
12 23.01 В 1 50 км 10/10 600 м
[Cb calv]
+7.1 +3.8 80 +6 +6 по сезону 1012.4 1003.3
15 23.01 штиль 0 10 баллов 85 1002.7
18 23.01 СЗ 1 8 баллов 81 1010.7
21 23.01 СЗ 2 10 км слаб. ливневой дождь 10 баллов +6.7 +5.6 93 +4 +4 по сезону 1011.9 1002.7

 

Местоположение метеостанции Алушта (Крым, Россия): широта 44.67 долгота 34.40 высота над уровнем моря 75 м.

В архиве по умолчанию представлена погода в Алуште за последнюю неделю. Архивные данные за месяц целиком и за предыдущие месяцы, начиная с января 2011 года, Вы можете получить, выбрав интересующий диапазон дат из раскрывающегося списка и нажав кнопку "Ввод!".


*Определитесь, кто Вы:
робот инопланетянин человек

Внимание! Время в таблицах - всемирное. Для получения местного времени необходимо прибавить поправку, которая равна 3 ч.

Смотрите также архив погоды в соседних городах и на ближайших метеорологических станциях:

Погода на Ангарском Перевале (Крым, Россия) (10 км)
Погода в Никитском саду (Крым, Россия) (20 км)
Погода в Ялте (Крым, Россия) (28 км)
Погода на Ай-Петри (Крым, Россия) (34 км)
Погода в Симферополе город (Крым, Россия) (38 км)
Погода в Почтовом (Крым, Россия) (40 км)
Погода в Белогорске (Крым, Россия) (45 км)
Погода в Симферополе (Крым, Россия) (52 км)
Погода в Карадаге (Крым, Россия) (68 км)
Погода в Севастополе (город Севастополь, Россия) (69 км)

Пояснения к столбцам:

Ветер - указаны скорость ветра в м/с - средняя за 10 мин, порывы в срок и между сроками (в фигурных скобках) и направление, откуда дует ветер: С - северный, СВ - северо-восточный, В - восточный, ЮВ - юго-восточный, Ю - южный, ЮЗ - юго-западный, З - западный, СЗ - северо-западный.
Видимость - горизонтальная дальность видимости в метрах или километрах. При видимости от 1 до 10 км при отсутствии осадков обычно наблюдается дымка, при ухудшении видимости до 1 км и менее - туман. В сухую погоду видимость может ухудшаться дымом, пылью или мглою.
Явления - указаны атмосферные явления, наблюдавшиеся в срок или в последний час перед сроком; фигурными скобками обозначены явления, наблюдавшиеся между сроками (за 1-3 часа до срока); квадратными скобками обозначены град или гололедные отложения с указанием их диаметра в мм.
Облачность - указаны через наклонную черту общая и нижняя облачность в баллах и высота нижней границы облаков в метрах; квадратными скобками обозначены формы облаков: Ci - перистые, Cs - перисто-слоистые, Cc - перисто-кучевые, Ac - высококучевые, As - высокослоистые, Sc - слоисто-кучевые, Ns - слоисто-дождевые, Cu - кучевые, Cb - кучево-дождевые. Подробнее классификацию облаков см. в Атласе облаков (PDF).
T - Температура воздуха - температура, измеренная на высоте 2 м над землей.
Td - Температура точки росы - температура, при понижении до которой содержащийся в воздухе водяной пар достигнет насыщения.
f - Относительная влажность воздуха - влажноcть воздуха, измеренная на высоте 2 м над землей.
Te - Эффективная температура - температура, которую ощущает одетый по сезону человек в тени. Характеристика душности погоды. При расчете учитывается влияние влажности воздуха и скорости ветра на теплоощущения человека.
Tes - Эффективная температура на солнце - температура, которую ощущает человек, с поправкой на солнечный нагрев. Характеристика знойности погоды. Зависит от высоты солнца над горизонтом, облачности и скорости ветра. Ночью, в пасмурную погоду, а также при ветре 12 м/с и более поправка равна нулю.
P - Атмосферное давление - приведенное к уровню моря атмосферное давление.
Po - Атмосферное давление - измеренное на уровне метеостанции атмосферное давление.
Tmin - Минимальная температура - минимум температуры воздуха на высоте 2 м над землей.
Tmax - Максимальная температура - максимум температуры воздуха на высоте 2 м над землей.
R - Количество осадков - Количество выпавших осадков за период времени, мм. При наведении курсора мыши на число - период времени, за который выпало указанное количество осадков.
R24 - Количество осадков - Количество выпавших осадков за 24 часа, мм.
S - Снежный покров - Высота снежного покрова, см. При наведении курсора мыши на число - состояние снежного покрова и степень покрытия местности в баллах.